SSEC Globe Logo

Space Science and Engineering Center

Wisconsin State Observations

ASUS43 KMKX 231820                                              2022143 1820
RWRWI
WISCONSIN REGIONAL WEATHER ROUNDUP
NATIONAL WEATHER SERVICE MILWAUKEE/SULLIVAN WI
NOTE: "FAIR" INDICATES FEW OR NO CLOUDS BELOW 12,000 FEET WITH NO
SIGNIFICANT WEATHER AND/OR OBSTRUCTIONS TO VISIBILITY.

CITY           SKY/WX    TMP DP  RH WIND       PRES   REMARKS
SUPERIOR ARPT  PTSUNNY   63  30  29 S7        30.29F
6HR MIN TEMP:  44; 6HR MAX TEMP:  62;
ASHLAND        CLOUDY    61  25  25 W10       30.32F
6HR MIN TEMP:  46; 6HR MAX TEMP:  62;
HAYWARD        CLOUDY    59  29  31 S10       30.33F
6HR MIN TEMP:  42; 6HR MAX TEMP:  59;
SIREN          PTSUNNY   60  28  30 W8        30.31F
6HR MIN TEMP:  46; 6HR MAX TEMP:  60;
CUMBERLAND     PTSUNNY   61  32  33 SE7       30.33F
RICE LAKE      CLOUDY    61  30  31 S6        30.34F
6HR MIN TEMP:  44; 6HR MAX TEMP:  61;
CHETEK         PTSUNNY   62  29  28 SW3       30.34F
6HR MIN TEMP:  43; 6HR MAX TEMP:  60;
LADYSMITH        N/A     58  28  31 W3        30.35F
6HR MIN TEMP:  40; 6HR MAX TEMP:  60;
EAU CLAIRE     MOSUNNY   62  28  27 SE8       30.33F
6HR MIN TEMP:  41; 6HR MAX TEMP:  62;
MENOMONIE        N/A     59  27  29 E7        30.33F
6HR MIN TEMP:  41; 6HR MAX TEMP:  62;
NEW RICHMOND   MOSUNNY   59  27  29 E3        30.33F
6HR MIN TEMP:  46; 6HR MAX TEMP:  60;
OSCEOLA        MOSUNNY   63  33  32 CALM      30.35F
6HR MIN TEMP:  47; 6HR MAX TEMP:  64;


CITY           SKY/WX    TMP DP  RH WIND       PRES   REMARKS
MANITOWISH WTR CLOUDY    55  28  35 CALM      30.33S
6HR MIN TEMP:  37; 6HR MAX TEMP:  56;
ARBOR VITAE    MOSUNNY   57  23  26 SE6       30.32F
6HR MIN TEMP:  37; 6HR MAX TEMP:  58;
WOODRUFF       MOSUNNY   57  23  26 SE6       30.32F
6HR MIN TEMP:  37; 6HR MAX TEMP:  58;
RHINELANDER    MOSUNNY   55  25  31 VRB3G17   30.34F
6HR MIN TEMP:  37; 6HR MAX TEMP:  58;
EAGLE RIVER    MOSUNNY   58  26  28 SE7       30.32F
6HR MIN TEMP:  36; 6HR MAX TEMP:  57;
LAND O LAKES   PTSUNNY   58  24  27 NW6       30.34F
6HR MIN TEMP:  35; 6HR MAX TEMP:  59;
PHILLIPS       MOSUNNY   57  30  36 W3        30.33F
6HR MIN TEMP:  35; 6HR MAX TEMP:  57;
TOMAHAWK       MOSUNNY   60  27  27 E3        30.34F
6HR MIN TEMP:  34; 6HR MAX TEMP:  60;
MEDFORD        MOSUNNY   57  30  35 CALM      30.33F
6HR MIN TEMP:  36; 6HR MAX TEMP:  57;
MERRILL        PTSUNNY   58  30  34 CALM      30.33F
6HR MIN TEMP:  33; 6HR MAX TEMP:  59;


CITY           SKY/WX    TMP DP  RH WIND       PRES   REMARKS
WAUSAU         MOSUNNY   60  28  29 NE5       30.33F
6HR MIN TEMP:  42; 6HR MAX TEMP:  62;
MOSINEE        PTSUNNY   57  28  33 CALM      30.36F
MARSHFIELD     MOSUNNY   58  32  37 NE8       30.35F
6HR MIN TEMP:  43; 6HR MAX TEMP:  59;
STEVENS POINT  PTSUNNY   61  20  20 E5        30.35F
6HR MIN TEMP:  40; 6HR MAX TEMP:  62;
WAUPACA        MOSUNNY   59  29  32 NE6       30.36F
6HR MIN TEMP:  45; 6HR MAX TEMP:  60;
WAUTOMA        MOSUNNY   59  31  34 E7        30.36F
6HR MIN TEMP:  39; 6HR MAX TEMP:  60;
WISC RAPIDS    MOSUNNY   61  29  29 VRB3      30.35F
6HR MIN TEMP:  42; 6HR MAX TEMP:  61;
CAMP DOUGLAS   PTSUNNY   59  30  33 SE5       30.33F


CITY           SKY/WX    TMP DP  RH WIND       PRES   REMARKS
ANTIGO         MOSUNNY   57  32  39 CALM      30.35F
6HR MIN TEMP:  36; 6HR MAX TEMP:  56;
SHAWANO        MOSUNNY   60  33  35 NE5       30.36F
6HR MIN TEMP:  42; 6HR MAX TEMP:  60;
OCONTO         SUNNY     57  35  44 SE7G17    30.38F
6HR MIN TEMP:  43; 6HR MAX TEMP:  58;
STURGEON BAY   SUNNY     54  39  57 E6        30.40F
6HR MIN TEMP:  48; 6HR MAX TEMP:  54;
GREEN BAY      MOSUNNY   60  38  43 SE9G20    30.37F
6HR MIN TEMP:  48; 6HR MAX TEMP:  62;
MANITOWOC      CLOUDY    52  39  61 SE8       30.39F
6HR MIN TEMP:  48; 6HR MAX TEMP:  55;
APPLETON       PTSUNNY   55  30  38 VRB5      30.35F
CLINTONVILLE   NOT AVBL
OSHKOSH        MOSUNNY   59  34  39 E9        30.36F
6HR MIN TEMP:  48; 6HR MAX TEMP:  59;


CITY           SKY/WX    TMP DP  RH WIND       PRES   REMARKS
LA CROSSE      MOSUNNY   62  31  31 VRB6      30.34F
6HR MIN TEMP:  41; 6HR MAX TEMP:  62;
SPARTA         MOSUNNY   58  30  34 SE7       30.35
6HR MIN TEMP:  33; 6HR MAX TEMP:  60;
VIROQUA          N/A     58  35  41 NE9G16    30.34F
6HR MIN TEMP:  42; 6HR MAX TEMP:  58;
BOSCOBEL       MOSUNNY   64  34  32 MISG      30.33F
6HR MIN TEMP:  37; 6HR MAX TEMP:  64;
PRAIRIE DU CHI MOSUNNY   59  33  37 E6        30.32F
6HR MIN TEMP:  37; 6HR MAX TEMP:  60;
PLATTEVILLE    PTSUNNY   62  38  40 SE7       30.30F
6HR MIN TEMP:  45; 6HR MAX TEMP:  62;

CITY           SKY/WX    TMP DP  RH WIND       PRES   REMARKS
REEDSBURG      CLOUDY    59  33  38 CALM      30.33F
6HR MIN TEMP:  37; 6HR MAX TEMP:  60;
BARABOO/DELLS  CLOUDY    59  33  37 E8        30.33F
6HR MIN TEMP:  36; 6HR MAX TEMP:  58;
LONE ROCK      PTSUNNY   61  36  39 SE10G17   30.33F
6HR MIN TEMP:  38; 6HR MAX TEMP:  61;
MINERAL POINT  MOSUNNY   63  32  31 E5        30.31F
MADISON        PTSUNNY   60  36  40 NE8       30.33F
6HR MIN TEMP:  45; 6HR MAX TEMP:  60;
MIDDLETON      MOSUNNY   62  35  36 SE6       30.33F
6HR MIN TEMP:  42; 6HR MAX TEMP:  62;
WATERTOWN      CLOUDY    60  32  34 NE5       30.34S
6HR MIN TEMP:  47; 6HR MAX TEMP:  60;
MONROE         PTSUNNY   61  33  35 E13       30.30F
6HR MIN TEMP:  45; 6HR MAX TEMP:  63;
JANESVILLE     PTSUNNY   64  34  32 MISG      30.31F


CITY           SKY/WX    TMP DP  RH WIND       PRES   REMARKS
MILWAUKEE      MOSUNNY   57  38  48 E9        30.37S
6HR MIN TEMP:  52; 6HR MAX TEMP:  59;
WAUKESHA       PTSUNNY   57  36  44 E8        30.36F
MILWAUKEE/TIMM PTSUNNY   57  28  33 NE10      30.36F
RACINE         SUNNY     56  40  55 E10       30.38F
6HR MIN TEMP:  49; 6HR MAX TEMP:  57;
KENOSHA        SUNNY     59  38  45 E13G18    30.36F
6HR MIN TEMP:  47; 6HR MAX TEMP:  60;
FOND DU LAC    CLOUDY    59  36  42 E5        30.36F
6HR MIN TEMP:  48; 6HR MAX TEMP:  61;
SHEBOYGAN      CLOUDY    57  37  47 SE10      30.37F
6HR MIN TEMP:  50; 6HR MAX TEMP:  58;
WEST BEND      CLOUDY    55  32  41 E8        30.36F
JUNEAU         PTSUNNY   59  35  40 N3        30.35F
6HR MIN TEMP:  44; 6HR MAX TEMP:  60;
LSZ147-162-231900-
LAKE SUPERIOR

STATION/POSITION TIME  TEMP    WIND        PRES    WAVE
                       AIR SEA DIR/SP/G            HT/PER
                 (UTC) (F)     (DEG/KT/KT) (MB)    (FT/S)

LMZ867-665-643>646-231900-
LAKE MICHIGAN

STATION/POSITION TIME  TEMP    WIND        PRES    WAVE
                       AIR SEA DIR/SP/G            HT/PER
                 (UTC) (F)     (DEG/KT/KT) (MB)    (FT/S)
TC  - TEMPERATURE IN CELSIUS
VSB - VISIBILITY IN STATUTE MILES
WCI - WIND CHILL INDEX
HX  - HEAT INDEX